Location: Tafessasset
(32.5899°N, 5.4824°W)
Time: 06:14:16
(UTC+00:00)

USA 116 - Pass Details

Date: 18 February 2020
Orbit: 405 x 834 km, 97.9° (Epoch: 18 November)

Event Time Altitude Azimuth Distance (km) Brightness Sun altitude
Rises 05:51:49 0° 157° (SSE) 2,494 7.5 -15.5°
Reaches altitude 10° 05:53:57 10° 152° (SSE) 1,573 6.5 -15.1°
Maximum altitude 05:57:10 49° 76° (ENE) 558 4.2 -14.4°
Drops below altitude 10° 06:00:13 10° 0° (N) 1,486 5.9 -13.8°
Sets 06:02:11 0° 355° (N) 2,337 6.8 -13.4°
